Wind_Speed
23 16 19 21 19 19 11 8 16 11 6 10 7 6 15 13 15 17 19 20 21 22 22 23 23 21 20 18 18 18 18 19 18 16 14 11 9 9 9 8 11 7 4 5
18 21 21 19 20 15 8 15 8 7 7 8 9 11 8 14 14 15 16 20 20 22 24 25 25 25 23 22 20 19 20 20 19 15 14 11 9 8 8 7 7 7 8 5
21 19 18 21 19 16 14 18 13 6 3 13 9 15 3 13 15 14 16 18 22 23 25 27 29 27 26 25 24 22 22 22 21 18 14 12 9 10 7 8 8 7 6 6
13 17 15 20 18 12 19 16 15 3 7 11 4 8 9 16 11 16 17 19 20 24 25 26 27 29 28 27 24 22 22 22 21 22 16 16 12 12 12 8 8 7 8 6
16 17 15 18 14 17 18 17 8 7 13 15 15 8 5 7 5 8 13 17 17 23 26 26 27 27 26 25 25 23 23 23 23 22 22 19 17 13 9 8 7 10 10 7
17 11 10 15 18 18 18 17 9 13 14 14 14 12 3 1 4 5 6 7 11 19 26 28 25 26 24 24 24 23 24 24 22 25 22 25 18 15 11 9 6 7 10 8
16 11 13 15 15 16 17 15 11 13 14 11 15 3 7 11 7 9 4 1 5 16 25 28 27 25 24 25 24 23 24 21 21 22 21 21 22 17 14 8 9 9 9 8
13 14 15 13 17 11 13 17 13 11 12 12 5 3 2 6 4 8 4 5 7 13 20 25 27 25 23 24 23 24 23 23 22 21 21 20 19 16 16 16 13 9 9 8
10 14 19 12 16 17 16 15 21 20 19 7 6 10 6 10 9 7 9 10 11 11 15 20 25 25 25 24 25 25 24 22 23 23 22 21 20 19 18 19 17 11 11 9
5 10 9 10 12 13 14 8 13 6 6 4 5 2 9 12 5 6 11 12 12 12 12 15 19 23 24 25 25 25 24 23 22 23 24 24 23 23 25 20 18 15 13 12
11 13 10 11 12 15 9 10 8 10 4 5 7 9 15 10 6 8 6 6 11 14 11 11 11 14 20 23 26 26 25 24 25 25 25 25 24 22 22 19 19 17 16 15
16 8 9 14 14 17 16 12 13 6 11 6 10 10 13 12 9 8 10 9 7 2 5 6 8 11 14 20 25 28 27 26 24 25 28 24 24 22 20 20 17 16 17 15
14 8 10 12 10 10 11 9 13 16 7 6 9 9 13 13 12 11 10 9 7 5 5 5 5 7 11 16 22 26 28 28 26 25 24 23 23 21 22 20 18 17 17 16
9 18 13 10 13 16 16 7 9 14 7 9 7 17 12 11 12 11 11 10 10 8 5 4 2 5 9 12 20 26 26 25 28 25 26 28 29 29 25 23 23 20 20 17
12 15 6 9 7 2 4 9 9 13 12 7 8 15 14 11 11 12 11 10 10 9 9 7 6 2 6 12 14 17 22 27 29 33 31 32 29 26 25 25 25 22 21 18
14 7 3 4 1 5 8 12 6 12 5 5 13 17 16 17 12 11 12 11 12 10 8 7 7 7 5 9 14 17 21 26 31 31 33 34 31 27 30 30 25 22 21 20
15 7 7 9 5 3 12 10 11 10 9 13 8 19 16 12 12 11 9 9 8 7 5 6 6 7 8 4 11 15 19 16 13 10 9 12 15 17 24 25 25 26 24 24
13 12 8 9 9 9 11 6 7 3 9 8 8 8 14 12 12 9 7 8 7 5 4 6 7 8 7 6 5 10 12 11 15 16 6 14 14 19 22 23 26 27 28 24
7 11 6 4 9 5 11 10 8 8 8 9 7 8 7 4 5 13 9 7 6 4 4 6 7 9 9 8 8 7 8 9 14 25 25 38 45 28 26 26 27 28 27 27
11 11 8 8 12 6 21 14 7 5 7 5 9 8 4 3 7 11 8 6 5 3 4 7 8 8 7 9 9 9 7 6 10 15 24 38 31 30 31 30 29 30 30 27
11 9 10 10 10 5 11 8 6 5 3 6 8 7 6 3 8 7 5 4 4 3 6 9 8 8 6 8 8 10 10 9 8 11 16 21 28 27 26 27 33 35 35 34
6 9 11 12 10 6 11 4 8 7 4 5 3 1 2 3 3 2 2 3 4 8 11 11 9 8 9 7 8 9 10 11 11 13 14 19 23 28 31 33 35 37 35 31
8 10 9 6 4 2 4 3 6 5 1 2 2 5 6 7 5 3 2 3 6 9 11 12 11 10 11 8 9 10 11 12 12 14 17 22 25 30 33 36 39 40 39 32
5 4 7 10 7 5 7 1 2 1 2 4 6 7 6 5 4 5 6 6 8 10 11 12 13 14 14 13 12 13 12 12 15 15 21 23 26 29 32 36 38 47 44 45
7 4 4 6 8 3 2 0 1 1 4 5 5 6 7 7 8 9 8 9 10 10 11 13 15 15 16 17 15 15 14 16 14 13 20 22 23 25 30 36 40 40 36 42
7 6 7 5 9 7 7 2 3 5 5 6 8 9 11 11 12 12 12 12 11 11 13 15 17 19 21 20 17 15 17 14 12 14 16 19 21 22 30 40 42 43 44 44
Wind_Direction
205 220 226 228 228 273 288 297 282 122 84 306 331 312 151 179 195 197 193 190 196 198 194 190 190 187 184 185 183 187 190 193 193 196 203 208 212 221 228 233 233 243 260 254
213 228 229 234 249 236 242 272 246 174 121 268 307 301 170 163 201 212 204 190 202 197 199 198 197 196 195 193 194 191 193 201 198 204 205 211 218 226 228 231 246 237 240 254
230 215 230 245 235 246 237 249 267 334 86 279 256 264 139 164 184 211 212 210 197 202 200 198 200 201 200 199 199 200 199 207 210 197 209 215 216 225 233 240 247 248 229 239
231 252 243 223 243 230 240 233 271 280 268 279 31 299 256 149 199 190 199 208 207 198 202 201 199 202 202 203 203 203 203 205 216 207 210 212 215 226 226 226 220 216 245 227
223 225 229 253 226 236 244 260 296 263 254 263 244 254 270 211 237 134 185 194 212 201 202 203 198 197 202 203 204 204 204 207 207 220 205 222 219 227 238 226 213 216 234 221
247 188 252 237 235 237 246 240 252 263 254 263 268 236 210 108 37 13 137 182 213 204 199 198 200 194 199 199 199 202 205 215 218 214 218 209 222 229 234 210 221 224 234 233
222 208 229 248 232 224 232 230 238 232 234 241 250 123 318 330 341 49 331 173 192 194 194 193 196 194 195 196 198 201 206 213 217 212 216 219 223 220 223 217 230 231 233 226
199 208 215 193 242 197 223 236 235 228 253 263 51 195 349 42 293 81 119 125 148 175 185 192 191 198 195 197 200 204 206 210 213 214 216 222 224 216 219 229 221 225 220 222
191 242 169 206 214 240 196 222 241 262 279 261 313 79 171 82 50 109 109 122 129 151 169 188 192 198 200 200 202 206 209 209 212 214 217 220 223 215 217 218 225 219 212 203
283 203 161 179 210 232 273 219 221 239 279 322 123 231 105 84 62 110 132 124 128 141 159 176 193 201 205 204 206 207 205 207 207 204 215 217 219 222 212 219 214 204 217 205
272 245 153 161 208 196 196 236 251 280 339 311 245 101 104 113 85 84 103 127 138 151 169 169 185 202 207 210 209 209 206 206 203 203 208 213 219 220 218 213 218 207 214 223
241 279 163 192 193 231 208 217 225 215 208 228 314 106 103 104 102 84 90 68 79 118 151 181 191 201 211 210 213 212 209 210 213 210 208 212 221 218 215 213 212 212 218 217
222 244 143 158 173 209 239 229 253 237 251 105 282 110 129 114 93 73 76 100 99 122 139 167 179 193 204 209 211 213 210 212 212 211 208 209 210 212 213 215 205 209 215 209
300 272 66 253 180 163 211 195 258 285 214 178 187 133 126 112 110 99 88 90 94 87 76 71 182 194 211 215 215 211 210 210 207 211 209 210 213 215 214 209 211 212 216 208
247 268 110 51 76 44 325 186 201 267 279 52 21 118 113 105 99 97 99 95 97 84 69 55 35 339 240 223 219 217 215 209 212 208 208 212 219 216 215 203 216 208 216 202
239 279 251 169 203 263 206 244 251 229 272 276 185 108 121 122 121 111 110 107 101 87 68 46 30 13 339 238 227 226 222 224 216 219 214 220 226 229 221 217 210 207 210 203
231 228 204 245 141 261 247 194 216 205 207 243 233 126 134 140 135 126 120 108 90 71 48 14 353 349 4 337 234 234 232 224 219 218 238 251 239 232 226 218 207 203 202 213
218 237 211 106 256 230 93 15 30 269 196 270 138 102 102 123 133 128 116 109 90 59 26 357 339 334 331 323 279 252 237 224 202 174 264 279 239 252 228 216 209 200 196 199
244 231 232 232 225 178 165 168 206 218 253 211 263 105 125 138 147 168 130 113 98 67 25 349 325 317 317 322 302 275 256 237 225 219 210 215 244 238 234 214 206 205 204 198
256 256 263 212 279 175 260 148 139 4 261 196 201 152 161 171 249 90 116 115 99 52 14 359 348 324 314 310 300 299 291 245 245 232 224 225 230 226 226 221 208 204 205 192
234 257 245 243 229 270 35 110 134 212 16 63 173 199 179 240 66 113 111 84 55 16 349 343 341 343 320 308 304 296 297 290 271 239 229 231 224 221 218 214 212 209 199 187
249 209 237 254 264 264 352 184 239 55 36 329 247 244 217 173 159 120 79 7 334 333 334 335 330 325 321 304 311 305 304 302 285 269 250 237 230 227 228 229 211 201 198 188
253 297 303 341 62 104 348 35 33 348 357 283 188 179 183 198 190 171 230 287 307 320 320 319 316 311 312 315 296 296 293 286 277 267 256 249 244 238 239 230 213 205 196 192
196 308 271 282 287 26 332 357 337 334 290 223 211 193 195 212 213 249 266 284 306 309 307 311 311 308 309 308 293 290 292 283 283 264 254 247 245 245 240 236 223 201 197 201
45 164 228 264 249 232 169 102 23 251 238 228 215 224 228 244 255 264 274 286 297 303 306 307 306 304 306 302 292 291 290 294 287 258 259 255 258 252 240 237 229 229 226 211
193 228 235 46 39 356 87 66 322 290 261 257 261 254 253 260 270 280 283 290 301 297 299 305 304 302 301 298 281 279 290 296 282 267 267 260 258 253 239 223 221 219 218 209
Height
1493 1492 1491 1484 1479 1472 1478 1474 1498 1475 1483 1487 1482 1481 1482 1491 1495 1497 1503 1511 1516 1521 1525 1529 1533 1537 1540 1545 1547 1549 1553 1555 1557 1559 1562 1564 1565 1567 1567 1568 1566 1567 1569 1568
1485 1489 1479 1477 1474 1477 1480 1481 1476 1472 1480 1486 1481 1480 1473 1484 1491 1493 1497 1503 1510 1516 1520 1525 1529 1533 1537 1541 1544 1547 1549 1552 1554 1558 1561 1563 1564 1565 1566 1567 1567 1566 1567 1566
1481 1475 1478 1476 1477 1479 1484 1480 1474 1479 1477 1477 1479 1478 1476 1474 1485 1489 1492 1496 1501 1508 1513 1518 1524 1529 1533 1537 1540 1543 1545 1548 1552 1556 1559 1561 1563 1563 1565 1566 1566 1566 1566 1565
1478 1473 1472 1476 1477 1477 1489 1472 1474 1479 1490 1497 1475 1503 1473 1471 1477 1479 1485 1490 1494 1501 1507 1512 1517 1523 1528 1532 1537 1541 1543 1546 1548 1552 1557 1559 1560 1561 1560 1562 1563 1565 1564 1564
1479 1476 1475 1479 1477 1478 1482 1472 1474 1478 1484 1484 1477 1490 1472 1463 1468 1468 1478 1482 1488 1493 1500 1507 1511 1517 1523 1528 1533 1537 1539 1541 1545 1547 1551 1555 1556 1559 1560 1562 1561 1563 1562 1562
1471 1470 1472 1476 1475 1475 1474 1475 1482 1482 1484 1499 1476 1481 1475 1468 1471 1466 1470 1477 1481 1486 1493 1501 1507 1512 1519 1524 1529 1533 1534 1536 1539 1543 1547 1551 1555 1557 1558 1560 1561 1561 1561 1560
1477 1475 1476 1474 1476 1472 1474 1482 1504 1507 1498 1496 1460 1476 1473 1462 1462 1468 1474 1475 1477 1480 1487 1495 1503 1508 1514 1520 1525 1528 1531 1532 1535 1539 1543 1546 1550 1554 1557 1559 1560 1559 1559 1560
1479 1489 1472 1470 1473 1474 1479 1478 1493 1516 1498 1478 1454 1483 1474 1461 1465 1470 1474 1475 1478 1480 1485 1492 1500 1506 1511 1517 1522 1526 1528 1529 1532 1536 1539 1543 1547 1551 1553 1554 1556 1557 1558 1560
1466 1473 1458 1464 1469 1468 1469 1485 1465 1473 1459 1475 1464 1462 1461 1462 1465 1471 1474 1477 1479 1482 1486 1491 1497 1503 1508 1513 1518 1522 1525 1527 1529 1532 1536 1540 1542 1545 1549 1552 1553 1555 1556 1559
1455 1472 1460 1465 1467 1466 1467 1459 1478 1473 1500 1504 1477 1483 1480 1474 1474 1469 1471 1476 1482 1485 1489 1491 1495 1499 1503 1509 1513 1516 1520 1522 1525 1529 1532 1535 1538 1540 1544 1547 1550 1553 1555 1556
1453 1455 1466 1463 1473 1470 1472 1472 1463 1457 1463 1487 1493 1484 1463 1474 1474 1474 1476 1476 1479 1483 1489 1491 1495 1498 1501 1505 1509 1512 1516 1519 1519 1524 1528 1531 1533 1537 1541 1545 1547 1550 1551 1552
1454 1451 1469 1468 1458 1455 1455 1462 1460 1477 1488 1472 1474 1488 1464 1472 1475 1477 1479 1481 1483 1485 1487 1490 1493 1496 1500 1502 1505 1508 1512 1515 1518 1522 1524 1527 1530 1533 1536 1540 1544 1547 1548 1549
1451 1452 1467 1468 1462 1460 1464 1454 1452 1447 1448 1474 1485 1487 1465 1472 1478 1482 1482 1485 1488 1488 1490 1491 1493 1496 1498 1500 1501 1503 1507 1511 1514 1518 1522 1524 1526 1529 1533 1536 1540 1543 1544 1547
1455 1443 1458 1468 1457 1454 1466 1459 1456 1450 1465 1464 1465 1473 1473 1474 1479 1485 1487 1487 1489 1490 1492 1493 1494 1496 1497 1498 1498 1500 1504 1507 1510 1513 1515 1517 1517 1520 1524 1528 1533 1537 1538 1541
1456 1450 1448 1448 1449 1450 1453 1456 1459 1464 1454 1468 1463 1464 1470 1476 1481 1486 1489 1491 1491 1493 1495 1496 1496 1497 1497 1497 1498 1498 1500 1501 1503 1504 1508 1510 1513 1518 1522 1525 1527 1531 1535 1537
1451 1457 1450 1460 1455 1456 1462 1456 1455 1459 1455 1458 1470 1463 1469 1480 1488 1489 1492 1493 1495 1497 1498 1499 1499 1497 1496 1496 1495 1494 1494 1494 1499 1503 1505 1509 1510 1513 1514 1516 1522 1527 1532 1535
1452 1448 1461 1469 1457 1462 1470 1456 1458 1456 1457 1459 1463 1460 1467 1478 1484 1490 1493 1494 1496 1498 1501 1501 1500 1497 1496 1495 1493 1490 1490 1496 1503 1509 1515 1520 1520 1517 1518 1517 1517 1520 1524 1529
1449 1449 1453 1474 1469 1492 1453 1455 1451 1456 1457 1454 1459 1441 1462 1477 1485 1491 1493 1495 1497 1500 1501 1502 1500 1498 1497 1495 1493 1490 1492 1496 1499 1501 1510 1516 1514 1512 1515 1515 1514 1515 1519 1523
1440 1447 1456 1467 1470 1458 1456 1457 1461 1465 1465 1459 1461 1463 1472 1480 1481 1488 1493 1496 1498 1500 1501 1501 1499 1497 1496 1494 1492 1491 1493 1495 1496 1495 1493 1500 1504 1503 1512 1510 1510 1513 1516 1517
1444 1443 1453 1462 1476 1500 1479 1446 1454 1459 1476 1460 1464 1467 1473 1480 1482 1487 1493 1495 1497 1499 1500 1499 1497 1495 1495 1494 1492 1491 1492 1494 1493 1494 1496 1498 1497 1502 1505 1505 1507 1507 1509 1511
1459 1459 1463 1460 1471 1457 1450 1454 1460 1483 1479 1461 1466 1470 1475 1481 1487 1492 1494 1495 1495 1497 1498 1498 1496 1495 1494 1493 1491 1490 1490 1491 1492 1491 1491 1493 1496 1498 1499 1500 1498 1496 1501 1501
1463 1466 1464 1460 1469 1486 1461 1460 1469 1471 1473 1472 1473 1473 1478 1483 1489 1491 1492 1494 1495 1495 1495 1495 1495 1494 1492 1490 1491 1489 1489 1488 1488 1487 1486 1486 1487 1489 1489 1490 1492 1497 1498 1491
1475 1462 1463 1466 1482 1471 1470 1469 1471 1472 1473 1477 1478 1479 1481 1484 1487 1490 1492 1493 1494 1493 1493 1493 1493 1492 1491 1489 1489 1488 1486 1484 1484 1483 1481 1481 1481 1480 1479 1480 1483 1488 1492 1481
1465 1469 1467 1466 1462 1467 1470 1472 1475 1476 1476 1478 1479 1481 1484 1485 1487 1489 1490 1490 1491 1491 1491 1491 1491 1490 1489 1488 1486 1484 1481 1480 1477 1476 1474 1475 1474 1473 1475 1475 1477 1477 1480 1489
1468 1470 1468 1468 1466 1470 1472 1474 1476 1478 1479 1479 1480 1482 1483 1484 1486 1487 1487 1489 1489 1490 1490 1489 1489 1487 1486 1484 1482 1480 1476 1473 1471 1472 1469 1468 1468 1469 1470 1471 1472 1472 1476 1479
1465 1468 1469 1467 1471 1474 1475 1479 1480 1480 1479 1481 1481 1481 1483 1484 1484 1485 1485 1486 1487 1487 1487 1486 1484 1483 1480 1479 1477 1474 1470 1468 1466 1465 1464 1464 1463 1464 1465 1466 1468 1471 1474 1478